| time (UTC) | temp F | wind direction | speed MPH | gust MPH | rain 1hr in | rain 24hr in | rain mn in | humidity % | barometer mb |
| 20260902110217 | 83 | 0.0 | 0.0 | 0.00 | 0.00 | 0.00 | 23 | 1010.1 | |
| 20260902105217 | 83 | 263 | 2.0 | 3.0 | 0.00 | 0.00 | 0.00 | 22 | 1010.1 |
| 20260902104217 | 83 | 302 | 1.0 | 2.0 | 0.00 | 0.00 | 0.00 | 25 | 1010.1 |
| 20260902103217 | 81 | 0.0 | 0.0 | 0.00 | 0.00 | 0.00 | 31 | 1010.1 | |
| 20260902102217 | 82 | 0.0 | 0.0 | 0.00 | 0.00 | 0.00 | 30 | 1010.1 | |
| 20260902101816 | 83 | 0.0 | 0.0 | 0.00 | 0.00 | 0.00 | 29 | 1010.1 | |
| 20260902100816 | 82 | 0.0 | 0.0 | 0.00 | 0.00 | 0.00 | 31 | 1010.1 | |
| 20260902095817 | 81 | 0.0 | 0.0 | 0.00 | 0.00 | 0.00 | 34 | 1010.2 | |
| 20260902094816 | 82 | 0.0 | 0.0 | 0.00 | 0.00 | 0.00 | 33 | 1010.1 | |
| 20260902093817 | 82 | 0.0 | 0.0 | 0.00 | 0.00 | 0.00 | 34 | 1010.0 | |
| 20260902092816 | 82 | 0.0 | 0.0 | 0.00 | 0.00 | 0.00 | 33 | 1010.1 | |
| 20260902091817 | 82 | 0.0 | 0.0 | 0.00 | 0.00 | 0.00 | 34 | 1010.2 | |
| 20260902090816 | 82 | 0.0 | 0.0 | 0.00 | 0.00 | 0.00 | 33 | 1010.2 | |
| 20260902085816 | 83 | 0.0 | 0.0 | 0.00 | 0.00 | 0.00 | 33 | 1010.2 | |
| 20260902084817 | 83 | 0.0 | 0.0 | 0.00 | 0.00 | 0.00 | 34 | 1010.4 | |
| 20260902083817 | 83 | 0.0 | 0.0 | 0.00 | 0.00 | 0.00 | 41 | 1010.4 | |
| 20260902082816 | 84 | 0.0 | 0.0 | 0.00 | 0.00 | 0.00 | 48 | 1010.4 | |
| 20260902081817 | 85 | 0.0 | 0.0 | 0.00 | 0.00 | 0.00 | 45 | 1010.3 | |
| 20260902081516 | 86 | 202 | 0.0 | 0.0 | 0.00 | 0.00 | 0.00 | 38 | 1010.4 |
| 20260902080517 | 86 | 247 | 3.0 | 4.0 | 0.00 | 0.00 | 0.00 | 41 | 1010.3 |
| 20260902075516 | 86 | 256 | 1.0 | 4.0 | 0.00 | 0.00 | 0.00 | 41 | 1010.3 |
| 20260902074516 | 86 | 263 | 2.0 | 4.0 | 0.00 | 0.00 | 0.00 | 49 | 1010.3 |
| 20260902073517 | 85 | 256 | 4.0 | 6.0 | 0.00 | 0.00 | 0.00 | 54 | 1010.3 |
| 20260902072516 | 86 | 239 | 2.0 | 4.0 | 0.00 | 0.00 | 0.00 | 54 | 1010.2 |
| 20260902071517 | 86 | 252 | 2.0 | 4.0 | 0.00 | 0.00 | 0.00 | 52 | 1010.1 |
| 20260902070516 | 86 | 0.0 | 0.0 | 0.00 | 0.00 | 0.00 | 50 | 1009.9 | |
| 20260902065517 | 86 | 0.0 | 0.0 | 0.00 | 0.00 | 0.00 | 49 | 1009.8 | |
| 20260902064516 | 86 | 0.0 | 0.0 | 0.00 | 0.00 | 0.00 | 50 | 1009.7 | |
| 20260902063516 | 86 | 0.0 | 0.0 | 0.00 | 0.00 | 0.00 | 49 | 1009.7 | |
| 20260902062817 | 86 | 0.0 | 0.0 | 0.00 | 0.00 | 0.00 | 49 | 1009.6 | |
| 20260902061816 | 86 | 0.0 | 0.0 | 0.00 | 0.00 | 0.00 | 50 | 1009.6 | |
| 20260902060817 | 86 | 0.0 | 0.0 | 0.00 | 0.00 | 0.00 | 49 | 1009.5 | |
| 20260902055816 | 86 | 0.0 | 0.0 | 0.00 | 0.00 | 0.00 | 50 | 1009.5 | |
| 20260902054817 | 86 | 0.0 | 0.0 | 0.00 | 0.00 | 0.00 | 50 | 1009.5 | |
| 20260902053817 | 86 | 0.0 | 0.0 | 0.00 | 0.00 | 0.00 | 50 | 1009.5 | |
| 20260902053416 | 86 | 0.0 | 0.0 | 0.00 | 0.00 | 0.00 | 49 | 1009.5 | |
| 20260902052417 | 86 | 0.0 | 0.0 | 0.00 | 0.00 | 0.00 | 50 | 1009.4 | |
| 20260902051416 | 86 | 0.0 | 0.0 | 0.00 | 0.00 | 0.00 | 50 | 1009.5 | |
| 20260902050417 | 87 | 0.0 | 0.0 | 0.00 | 0.00 | 0.00 | 50 | 1009.5 | |
| 20260902045417 | 87 | 0.0 | 0.0 | 0.00 | 0.00 | 0.00 | 50 | 1009.5 | |
| 20260902044416 | 87 | 0.0 | 0.0 | 0.00 | 0.00 | 0.00 | 51 | 1009.5 | |
| 20260902043417 | 87 | 0.0 | 0.0 | 0.00 | 0.00 | 0.00 | 50 | 1009.4 | |
| 20260902042417 | 86 | 0.0 | 0.0 | 0.00 | 0.00 | 0.00 | 52 | 1009.4 | |
| 20260902041417 | 86 | 0.0 | 0.0 | 0.00 | 0.00 | 0.00 | 53 | 1009.3 | |
| 20260902040416 | 86 | 0.0 | 0.0 | 0.00 | 0.00 | 0.00 | 53 | 1009.3 | |
| 20260902035417 | 87 | 351 | 0.0 | 1.0 | 0.00 | 0.00 | 0.00 | 52 | 1009.4 |
| 20260902034417 | 87 | 328 | 3.0 | 3.0 | 0.00 | 0.00 | 0.00 | 53 | 1009.1 |
| 20260902033417 | 87 | 15 | 0.0 | 0.0 | 0.00 | 0.00 | 0.00 | 53 | 1008.9 |
| 20260902032416 | 87 | 5 | 5.0 | 8.0 | 0.00 | 0.00 | 0.00 | 53 | 1008.8 |
| 20260902031417 | 87 | 360 | 6.0 | 10.0 | 0.00 | 0.00 | 0.00 | 52 | 1008.7 |
| 20260902030416 | 86 | 1 | 8.0 | 11.0 | 0.00 | 0.00 | 0.00 | 52 | 1008.6 |
| 20260902025717 | 86 | 353 | 10.0 | 14.0 | 0.00 | 0.00 | 0.00 | 53 | 1008.5 |
| 20260902024716 | 86 | 358 | 8.0 | 11.0 | 0.00 | 0.00 | 0.00 | 54 | 1008.6 |
| 20260902023717 | 86 | 343 | 11.0 | 16.0 | 0.00 | 0.00 | 0.00 | 53 | 1008.6 |
| 20260902022717 | 87 | 342 | 10.0 | 14.0 | 0.00 | 0.00 | 0.00 | 53 | 1008.8 |
| 20260902021717 | 88 | 344 | 11.0 | 14.0 | 0.00 | 0.00 | 0.00 | 52 | 1008.6 |
| 20260902020717 | 91 | 330 | 6.0 | 8.0 | 0.00 | 0.00 | 0.00 | 51 | 1008.2 |
| 20260902020517 | 91 | 335 | 3.0 | 3.0 | 0.00 | 0.00 | 0.00 | 51 | 1008.0 |
| 20260902015716 | 91 | 19 | 5.0 | 5.0 | 0.00 | 0.00 | 0.00 | 51 | 1007.9 |
| 20260902014717 | 91 | 331 | 2.0 | 6.0 | 0.00 | 0.00 | 0.00 | 52 | 1007.7 |
| 20260902013717 | 91 | 338 | 5.0 | 9.0 | 0.00 | 0.00 | 0.00 | 50 | 1007.8 |
| 20260902012716 | 91 | 333 | 7.0 | 9.0 | 0.00 | 0.00 | 0.00 | 48 | 1007.8 |
| 20260902011717 | 91 | 346 | 10.0 | 15.0 | 0.00 | 0.00 | 0.00 | 47 | 1007.7 |
| 20260902010717 | 92 | 336 | 11.0 | 13.0 | 0.00 | 0.00 | 0.00 | 44 | 1007.8 |
| 20260902005717 | 102 | 0.0 | 0.0 | 0.00 | 0.00 | 0.00 | 31 | 1007.1 | |
| 20260902004717 | 103 | 182 | 8.0 | 10.0 | 0.00 | 0.00 | 0.00 | 31 | 1006.7 |
| 20260902003717 | 105 | 201 | 6.0 | 9.0 | 0.00 | 0.00 | 0.00 | 30 | 1006.3 |
| 20260902002617 | 105 | 165 | 9.0 | 11.0 | 0.00 | 0.00 | 0.00 | 30 | 1005.7 |
| 20260902001617 | 106 | 184 | 9.0 | 10.0 | 0.00 | 0.00 | 0.00 | 30 | 1006.0 |
| 20260902001517 | 106 | 194 | 5.0 | 8.0 | 0.00 | 0.00 | 0.00 | 30 | 1006.1 |
| 20260902000517 | 105 | 195 | 6.0 | 10.0 | 0.00 | 0.00 | 0.00 | 31 | 1006.4 |
| 20260901235517 | 105 | 187 | 5.0 | 9.0 | 0.00 | 0.00 | 0.00 | 31 | 1006.5 |
| 20260901234516 | 104 | 210 | 5.0 | 8.0 | 0.00 | 0.00 | 0.00 | 32 | 1006.5 |
| 20260901233517 | 107 | 156 | 9.0 | 12.0 | 0.00 | 0.00 | 0.00 | 30 | 1006.4 |
| 20260901232516 | 107 | 173 | 3.0 | 9.0 | 0.00 | 0.00 | 0.00 | 30 | 1006.6 |
| 20260901231520 | 106 | 218 | 10.0 | 13.0 | 0.00 | 0.00 | 0.00 | 28 | 1006.8 |
| 20260901230417 | 107 | 210 | 4.0 | 8.0 | 0.00 | 0.00 | 0.00 | 29 | 1007.0 |
| 20260901225416 | 104 | 194 | 3.0 | 6.0 | 0.00 | 0.00 | 0.00 | 32 | 1007.0 |
| 20260901224416 | 106 | 204 | 8.0 | 13.0 | 0.00 | 0.00 | 0.00 | 31 | 1007.1 |
| 20260901223417 | 102 | 0.0 | 0.0 | 0.00 | 0.00 | 0.00 | 34 | 1007.2 | |
| 20260901222417 | 105 | 192 | 8.0 | 11.0 | 0.00 | 0.00 | 0.00 | 32 | 1007.5 |
| 20260901221417 | 105 | 269 | 1.0 | 5.0 | 0.00 | 0.00 | 0.00 | 31 | 1007.5 |
| 20260901220417 | 105 | 235 | 1.0 | 5.0 | 0.00 | 0.00 | 0.00 | 30 | 1007.7 |
| 20260901215416 | 106 | 155 | 5.0 | 8.0 | 0.00 | 0.00 | 0.00 | 30 | 1007.7 |
| 20260901214417 | 105 | 211 | 6.0 | 8.0 | 0.00 | 0.00 | 0.00 | 31 | 1008.0 |
| 20260901213417 | 105 | 201 | 5.0 | 8.0 | 0.00 | 0.00 | 0.00 | 31 | 1008.2 |
| 20260901212417 | 106 | 225 | 9.0 | 13.0 | 0.00 | 0.00 | 0.00 | 30 | 1008.2 |
| 20260901211416 | 105 | 194 | 4.0 | 6.0 | 0.00 | 0.00 | 0.00 | 33 | 1008.5 |
| 20260901210417 | 105 | 228 | 1.0 | 6.0 | 0.00 | 0.00 | 0.00 | 33 | 1008.7 |
| 20260901205416 | 105 | 212 | 2.0 | 10.0 | 0.00 | 0.00 | 0.00 | 33 | 1008.8 |
| 20260901204416 | 105 | 204 | 3.0 | 7.0 | 0.00 | 0.00 | 0.00 | 33 | 1008.9 |
| 20260901203417 | 103 | 203 | 5.0 | 10.0 | 0.00 | 0.00 | 0.00 | 34 | 1009.1 |
| 20260901202416 | 103 | 223 | 6.0 | 9.0 | 0.00 | 0.00 | 0.00 | 36 | 1009.2 |
| 20260901201417 | 103 | 152 | 5.0 | 7.0 | 0.00 | 0.00 | 0.00 | 34 | 1009.3 |
| 20260901200417 | 104 | 194 | 8.0 | 12.0 | 0.00 | 0.00 | 0.00 | 35 | 1009.5 |
| 20260901195417 | 103 | 114 | 2.0 | 5.0 | 0.00 | 0.00 | 0.00 | 36 | 1009.7 |
| 20260901194416 | 104 | 214 | 4.0 | 8.0 | 0.00 | 0.00 | 0.00 | 35 | 1009.8 |
| 20260901193417 | 104 | 181 | 3.0 | 7.0 | 0.00 | 0.00 | 0.00 | 35 | 1009.9 |
| 20260901192417 | 103 | 188 | 11.0 | 14.0 | 0.00 | 0.00 | 0.00 | 36 | 1009.9 |
| 20260901191417 | 103 | 140 | 2.0 | 5.0 | 0.00 | 0.00 | 0.00 | 38 | 1010.1 |
| 20260901190417 | 100 | 180 | 0.0 | 1.0 | 0.00 | 0.00 | 0.00 | 40 | 1010.2 |
| 20260901185817 | 102 | 151 | 7.0 | 9.0 | 0.00 | 0.00 | 0.00 | 38 | 1010.3 |
| 20260901184817 | 102 | 184 | 6.0 | 9.0 | 0.00 | 0.00 | 0.00 | 38 | 1010.5 |
| 20260901183817 | 101 | 0.0 | 0.0 | 0.00 | 0.00 | 0.00 | 40 | 1010.6 | |
| 20260901182817 | 99 | 211 | 3.0 | 6.0 | 0.00 | 0.00 | 0.00 | 42 | 1010.6 |
| 20260901181816 | 100 | 192 | 2.0 | 7.0 | 0.00 | 0.00 | 0.00 | 42 | 1010.7 |
| 20260901180817 | 100 | 157 | 9.0 | 12.0 | 0.00 | 0.00 | 0.00 | 42 | 1010.8 |
| 20260901175817 | 100 | 169 | 2.0 | 9.0 | 0.00 | 0.00 | 0.00 | 42 | 1010.9 |
| 20260901174816 | 98 | 145 | 8.0 | 11.0 | 0.00 | 0.00 | 0.00 | 46 | 1011.0 |
| 20260901173817 | 98 | 157 | 7.0 | 9.0 | 0.00 | 0.00 | 0.00 | 45 | 1011.0 |
| 20260901172817 | 97 | 175 | 4.0 | 8.0 | 0.00 | 0.00 | 0.00 | 47 | 1011.0 |
| 20260901171817 | 98 | 145 | 5.0 | 7.0 | 0.00 | 0.00 | 0.00 | 46 | 1011.0 |
| 20260901170816 | 98 | 125 | 5.0 | 6.0 | 0.00 | 0.00 | 0.00 | 46 | 1011.1 |
| 20260901165817 | 97 | 203 | 4.0 | 6.0 | 0.00 | 0.00 | 0.00 | 48 | 1011.0 |
| 20260901164817 | 97 | 156 | 4.0 | 9.0 | 0.00 | 0.00 | 0.00 | 49 | 1010.9 |
| 20260901163817 | 96 | 178 | 4.0 | 8.0 | 0.00 | 0.00 | 0.00 | 50 | 1011.0 |
| 20260901162816 | 96 | 162 | 7.0 | 9.0 | 0.00 | 0.00 | 0.00 | 50 | 1011.0 |
| 20260901161817 | 95 | 153 | 9.0 | 11.0 | 0.00 | 0.00 | 0.00 | 51 | 1011.0 |
| 20260901160816 | 95 | 167 | 4.0 | 8.0 | 0.00 | 0.00 | 0.00 | 51 | 1011.0 |
| 20260901155817 | 94 | 152 | 8.0 | 11.0 | 0.00 | 0.00 | 0.00 | 52 | 1010.9 |
| 20260901154817 | 94 | 147 | 9.0 | 12.0 | 0.00 | 0.00 | 0.00 | 52 | 1010.8 |
| 20260901153817 | 93 | 157 | 8.0 | 10.0 | 0.00 | 0.00 | 0.00 | 54 | 1010.8 |
| 20260901152817 | 92 | 157 | 8.0 | 11.0 | 0.00 | 0.00 | 0.00 | 55 | 1010.9 |
| 20260901152517 | 92 | 152 | 9.0 | 12.0 | 0.00 | 0.00 | 0.00 | 56 | 1010.9 |
| 20260901151517 | 90 | 151 | 7.0 | 9.0 | 0.00 | 0.00 | 0.00 | 58 | 1010.9 |
| 20260901150516 | 90 | 138 | 9.0 | 11.0 | 0.00 | 0.00 | 0.00 | 60 | 1010.9 |
| 20260901145517 | 89 | 145 | 8.0 | 10.0 | 0.00 | 0.00 | 0.00 | 62 | 1010.9 |
| 20260901144517 | 89 | 150 | 4.0 | 6.0 | 0.00 | 0.00 | 0.00 | 62 | 1010.9 |
| 20260901143516 | 88 | 141 | 6.0 | 10.0 | 0.00 | 0.00 | 0.00 | 63 | 1010.7 |
| 20260901142517 | 88 | 128 | 0.0 | 2.0 | 0.00 | 0.00 | 0.00 | 65 | 1010.8 |
| 20260901141516 | 87 | 136 | 0.0 | 1.0 | 0.00 | 0.00 | 0.00 | 67 | 1010.7 |
| 20260901140517 | 87 | 150 | 1.0 | 4.0 | 0.00 | 0.00 | 0.00 | 68 | 1010.6 |
| 20260901135516 | 86 | 181 | 0.0 | 2.0 | 0.00 | 0.00 | 0.00 | 70 | 1010.6 |
| 20260901134517 | 85 | 0.0 | 0.0 | 0.00 | 0.00 | 0.00 | 71 | 1010.4 | |
| 20260901133716 | 85 | 0.0 | 0.0 | 0.00 | 0.00 | 0.00 | 72 | 1010.3 | |
| 20260901132716 | 85 | 0.0 | 0.0 | 0.00 | 0.00 | 0.00 | 72 | 1010.2 | |
| 20260901131717 | 85 | 0.0 | 0.0 | 0.00 | 0.00 | 0.00 | 72 | 1010.1 | |
| 20260901130917 | 85 | 0.0 | 0.0 | 0.00 | 0.00 | 0.00 | 72 | 1010.0 | |
| 20260901125916 | 85 | 0.0 | 0.0 | 0.00 | 0.00 | 0.00 | 72 | 1009.9 | |
| 20260901124917 | 85 | 143 | 5.0 | 6.0 | 0.00 | 0.00 | 0.00 | 72 | 1009.9 |
| 20260901123917 | 86 | 140 | 6.0 | 7.0 | 0.00 | 0.00 | 0.00 | 71 | 1009.8 |
| 20260901122916 | 86 | 139 | 6.0 | 8.0 | 0.00 | 0.00 | 0.00 | 71 | 1009.7 |
| 20260901121917 | 86 | 138 | 5.0 | 6.0 | 0.00 | 0.00 | 0.00 | 71 | 1009.7 |
| 20260901120917 | 86 | 142 | 6.0 | 6.0 | 0.00 | 0.00 | 0.00 | 71 | 1009.6 |
| 20260901115916 | 86 | 139 | 4.0 | 7.0 | 0.00 | 0.00 | 0.00 | 71 | 1009.5 |
| 20260901114916 | 86 | 140 | 6.0 | 8.0 | 0.00 | 0.00 | 0.00 | 70 | 1009.4 |
| 20260901113917 | 86 | 137 | 6.0 | 8.0 | 0.00 | 0.00 | 0.00 | 70 | 1009.2 |
| 20260901112916 | 86 | 139 | 7.0 | 8.0 | 0.00 | 0.00 | 0.00 | 70 | 1009.1 |
| 20260901111916 | 86 | 139 | 7.0 | 8.0 | 0.00 | 0.00 | 0.00 | 69 | 1009.1 |
| 20260901110916 | 86 | 133 | 8.0 | 9.0 | 0.00 | 0.00 | 0.00 | 69 | 1009.0 |